Vacaville, CA

3:08 PM PDT on July 26, 2017 (GMT -0700)
Nut Tree

Weather History for KVCB - May, 2012

Change the Weather History Date:

Monday, May 28, 2012

  Actual Average Record
Temperature  
Mean Temperature 62 °F -  
Max Temperature 72 °F 83 °F 104 °F (1984)
Min Temperature 52 °F 51 °F 41 °F (1959)
Degree Days  
Heating Degree Days 3    
Growing Degree Days 12 (Base 50)    
Moisture  
Dew Point 46 °F    
Average Humidity 56    
Maximum Humidity 77    
Minimum Humidity 41    
Precipitation  
Precipitation 0.00 in - - ()
Sea Level Pressure  
Sea Level Pressure 29.99 in    
Wind  
Wind Speed 9 mph (SSW)    
Max Wind Speed 16 mph    
Max Gust Speed 28 mph    
Visibility 10 miles    
Events      
Averages and records for this station are not official NWS values.
T = Trace of Precipitation, MM = Missing Value Source: NWS Daily Summary

Daily Weather History Graph

Daily Weather History Graph

Search for Another Location

Airport or City:

Trip Planner

Search our weather history database for the weather conditions in past years. The results will help you decide how hot, cold, wet, or windy it might be!

Date:

Astronomy

May. 28, 2012 Rise Set
Actual Time 5:47 AM PDT 8:23 PM PDT
Civil Twilight 5:16 AM PDT 8:54 PM PDT
Nautical Twilight 4:38 AM PDT 9:32 PM PDT
Astronomical Twilight 3:55 AM PDT 10:15 PM PDT
Moon 12:59 PM PDT (5/28) 1:06 AM PDT (5/28)
Length of Visible Light 15h 37m
Length of Day
14h 36m
Waxing Crescent, 49% of the Moon is Illuminated
May 28
Waxing Crescent
May 28
First Quarter
Jun 4
Full
Jun 11
Last Quarter
Jun 19
New

Hourly Weather History & Observations

Time (PDT) Temp. Dew Point Humidity Pressure Visibility Wind Dir Wind Speed Gust Speed Precip Events Conditions
12:53 AM 57.9 °F 44.1 °F 60% 30.01 in 10.0 mi SW 4.6 mph - N/A   Clear
1:53 AM 57.0 °F 44.1 °F 62% 30.01 in 10.0 mi SSW 5.8 mph - N/A   Clear
2:53 AM 55.9 °F 45.0 °F 67% 30.01 in 10.0 mi SW 6.9 mph - N/A   Clear
4:53 AM 52.0 °F 45.0 °F 77% 30.01 in 10.0 mi WSW 5.8 mph - N/A   Clear
5:53 AM 53.1 °F 46.0 °F 77% 30.01 in 10.0 mi SW 6.9 mph - N/A   Clear
6:53 AM 54.0 °F 46.0 °F 75% 30.01 in 10.0 mi SW 10.4 mph - N/A   Clear
7:53 AM 57.0 °F 48.0 °F 72% 30.02 in 10.0 mi SSW 8.1 mph 17.3 mph N/A   Clear
8:53 AM 61.0 °F 48.0 °F 62% 30.02 in 10.0 mi SSW 9.2 mph - N/A   Clear
9:53 AM 63.0 °F 48.0 °F 58% 30.03 in 10.0 mi SSW 9.2 mph - N/A   Clear
10:53 AM 66.0 °F 46.9 °F 50% 30.02 in 10.0 mi SSW 10.4 mph 17.3 mph N/A   Clear
11:53 AM 68.0 °F 46.9 °F 47% 30.02 in 10.0 mi SSW 10.4 mph 19.6 mph N/A   Clear
12:53 PM 69.1 °F 46.0 °F 44% 30.02 in 10.0 mi SSW 13.8 mph 23.0 mph N/A   Clear
1:53 PM 70.0 °F 48.0 °F 46% 30.00 in 10.0 mi SW 13.8 mph 27.6 mph N/A   Clear
2:53 PM 72.0 °F 46.9 °F 41% 29.99 in 10.0 mi SW 16.1 mph 21.9 mph N/A   Clear
3:53 PM 71.1 °F 46.9 °F 42% 29.98 in 10.0 mi SW 15.0 mph 24.2 mph N/A   Clear
4:53 PM 70.0 °F 46.9 °F 44% 29.98 in 10.0 mi SSW 16.1 mph 24.2 mph N/A   Clear
5:53 PM 68.0 °F 46.0 °F 45% 29.97 in 10.0 mi SW 16.1 mph 24.2 mph N/A   Clear
6:53 PM 64.9 °F 46.0 °F 50% 29.96 in 10.0 mi SSW 13.8 mph 24.2 mph N/A   Clear
7:53 PM 63.0 °F 44.1 °F 50% 29.95 in 10.0 mi SSW 12.7 mph 19.6 mph N/A   Clear
8:53 PM 61.0 °F 43.0 °F 52% 29.95 in 10.0 mi SSW 10.4 mph - N/A   Clear
9:53 PM 59.0 °F 42.1 °F 53% 29.96 in 10.0 mi SSW 9.2 mph - N/A   Clear
10:53 PM 57.0 °F 43.0 °F 59% 29.97 in 10.0 mi SSW 5.8 mph - N/A   Clear
11:53 PM 55.9 °F 43.0 °F 62% 29.97 in 10.0 mi SSW 8.1 mph - N/A   Clear